Location: Fort Worth, Tx
(32.7431°N, 97.3695°W)
Time: 04:21:46
(UTC-04:00)

Vanguard 3 - Pass Details

Date: 23 February 2024
Orbit: 510 x 3234 km, 33.3° (Epoch: 24 April)

Event Time Altitude Azimuth Distance (km) Brightness Sun altitude
Rises 22:47:36 0° 248° (WSW) 6,939 12.4 -43.6°
Reaches altitude 10° 22:52:01 10° 247° (WSW) 6,066 11.9 -44.4°
Enters shadow 23:10:44 79° 210° (SSW) 3,133 9.7 -48.1°
